Location: Asheville, NC
(35.6000°N, 82.5500°W)
Time: 00:33:50
(UTC-04:00)

KAITUO 1B - Pass Details

Date: 12 March 2018
Orbit: 498 x 520 km, 97.4° (Epoch: 18 June)

Event Time Altitude Azimuth Distance (km) Brightness Sun altitude
Rises 20:11:02 0° 213° (SSW) 2,573 ? -8.1°
Reaches altitude 10° 20:14:31 10° 249° (WSW) 1,700 ? -8.8°
Maximum altitude 20:15:39 11° 268° (W) 1,630 ? -9.0°
Drops below altitude 10° 20:16:48 10° 286° (WNW) 1,707 ? -9.3°
Sets 20:20:20 0° 322° (NW) 2,604 ? -10.0°
